Regional Weather Roundup
Issued by NWS

Home | Current Version | Previous Version | Graphics & Text | Print | Product List | Glossary On
Versions: 1 2 3 4 5 6 7 8 9 10 11 12 13 14 15 16 17 18 19 20 21 22 23 24 25 26 27 28 29 30 31 32 33 34 35 36 37 38 39 40 41 42 43 44 45 46 47 48 49 50
000
ASUS43 KLSX 010307
RWRMO

WEATHER SUMMARY FOR MISSOURI
NATIONAL WEATHER SERVICE SPRINGFIELD MO
900 PM CST SAT JAN 31 2015

NOTE: "FAIR" INDICATES FEW OR NO CLOUDS BELOW 12,000 FEET WITH NO
       SIGNIFICANT WEATHER AND/OR OBSTRUCTIONS TO VISIBILITY.
       CURRENT SKY AND/OR WEATHER CONDITIONS ARE NOT AVAILABLE FOR
       CHILLICOTHE AND FARMINGTON.

MOZ001>031-035>038-043-044-053-054-010400-
...NORTHERN AND WESTERN MISSOURI...

CITY           SKY/WX    TMP DP  RH WIND       PRES   REMARKS
KANSAS CTY INT LGT SNOW  33  33 100 SE12      29.92F FOG     WCI  24
KANSAS C DTWN  LGT RAIN  36  34  92 E9        29.94F WCI  29
LEE`S SUMMIT   LGT RAIN  35  33  92 E8        29.94F FOG     WCI  29
ST JOSEPH      LGT SNOW  33  32  96 SE8       29.94F FOG     WCI  26
CHILLICOTHE      N/A     34  32  92 SE7       30.00F WCI  28
KIRKSVILLE     LGT SNOW  33  33 100 SE10      30.03F VSB 3/4 WCI  25

$$
MOZ066>068-077>081-088>096-101>105-010400-
...SOUTHWEST MISSOURI...

CITY           SKY/WX    TMP DP  RH WIND       PRES   REMARKS
SPRINGFIELD    CLOUDY    43  22  43 SE26G35   29.92F
JOPLIN         LGT RAIN  41  37  86 VRB5      29.92F FOG

$$
MOZ032>034-039>042-045>050-055>058-069>072-010400-
...CENTRAL MISSOURI...

CITY           SKY/WX    TMP DP  RH WIND       PRES   REMARKS
COLUMBIA       LGT RAIN  38  32  79 E14       30.00F WCI  30
JEFFERSON CITY LGT RAIN  39  29  67 E17       30.01F WCI  30
ROLLA          CLOUDY    38  21  50 SE10      30.01F
SEDALIA        MIX PCPN  37  32  82 SE10      29.97F WCI  30
WHITEMAN AFB   LGT RAIN  36  32  87 SE6       29.95F
WARRENSBURG    DRIZZLE   36  34  93 E6        29.96F
OSAGE BEACH    CLOUDY    43  21  42 SE12      29.95F

$$
MOZ051-052-059>065-010400-
...EAST CENTRAL MISSOURI...

CITY           SKY/WX    TMP DP  RH WIND       PRES   REMARKS
ST LOUIS INTL  CLOUDY    41  26  55 SE9       30.12F
SPIRIT OF STL  CLOUDY    41  25  53 VRB7      30.10F
ST CHARLES     CLOUDY    38  31  76 SE12      30.12F

$$
MOZ072>076-082>087-097>100-106>115-010400-
...SOUTH CENTRAL AND SOUTHEAST MISSOURI...

CITY           SKY/WX    TMP DP  RH WIND       PRES   REMARKS
CAPE GIRARDEAU CLOUDY    40  26  57 E3        30.15F
FARMINGTON     CLOUDY    37  25  60 SE8       30.13F
POPLAR BLUFF   CLOUDY    39  29  67 E3        30.13F
WEST PLAINS    CLOUDY    39  24  55 SE10G18   30.07F

$$


USA.gov is the U.S. government's official web portal to all federal, state and local government web resources and services.